| time (UTC) | temp F | wind direction | speed MPH | gust MPH | rain 1hr in | rain 24hr in | rain mn in | humidity % | barometer mb |
| 20260504214538 | 71 | 187 | 3.0 | 10.0 | 0.00 | 0.00 | 0.00 | 33 | 1006.1 |
| 20260504213054 | 73 | 315 | 3.0 | 11.0 | 0.00 | 0.00 | 0.00 | 33 | 1006.2 |
| 20260504211537 | 73 | 334 | 3.0 | 11.0 | 0.00 | 0.00 | 0.00 | 32 | 1006.2 |
| 20260504210041 | 72 | 205 | 4.0 | 10.0 | 0.00 | 0.00 | 0.00 | 32 | 1006.0 |
| 20260504204539 | 72 | 252 | 3.0 | 7.0 | 0.00 | 0.00 | 0.00 | 32 | 1006.1 |
| 20260504203038 | 71 | 277 | 4.0 | 16.0 | 0.00 | 0.00 | 0.00 | 32 | 1006.1 |
| 20260504201538 | 71 | 238 | 6.0 | 12.0 | 0.00 | 0.00 | 0.00 | 32 | 1006.1 |
| 20260504200036 | 74 | 279 | 6.0 | 13.0 | 0.00 | 0.00 | 0.00 | 30 | 1006.1 |
| 20260504194556 | 73 | 135 | 4.0 | 13.0 | 0.00 | 0.00 | 0.00 | 32 | 1006.2 |
| 20260504193051 | 73 | 277 | 4.0 | 18.0 | 0.00 | 0.00 | 0.00 | 29 | 1006.2 |
| 20260504191539 | 72 | 330 | 4.0 | 17.0 | 0.00 | 0.00 | 0.00 | 32 | 1006.3 |
| 20260504190041 | 72 | 227 | 6.0 | 12.0 | 0.00 | 0.00 | 0.00 | 29 | 1006.4 |
| 20260504184543 | 72 | 333 | 6.0 | 14.0 | 0.00 | 0.00 | 0.00 | 29 | 1006.8 |
| 20260504183042 | 72 | 244 | 3.0 | 16.0 | 0.00 | 0.00 | 0.00 | 31 | 1006.8 |
| 20260504181542 | 71 | 229 | 5.0 | 15.0 | 0.00 | 0.00 | 0.00 | 30 | 1006.9 |
| 20260504180039 | 71 | 248 | 6.0 | 13.0 | 0.00 | 0.00 | 0.00 | 31 | 1007.0 |
| 20260504174538 | 70 | 231 | 4.0 | 16.0 | 0.00 | 0.00 | 0.00 | 33 | 1007.2 |
| 20260504173049 | 70 | 179 | 5.0 | 17.0 | 0.00 | 0.00 | 0.00 | 31 | 1007.2 |
| 20260504171536 | 69 | 343 | 6.0 | 17.0 | 0.00 | 0.00 | 0.00 | 31 | 1007.2 |
| 20260504081541 | 41 | 0 | 0.0 | 0.0 | 0.00 | 0.00 | 0.00 | 76 | 1009.8 |
| 20260504044551 | 33 | 0 | 0.0 | 0.0 | 0.00 | 0.00 | 0.00 | 89 | 1009.9 |
| 20260504043044 | 32 | 0 | 0.0 | 0.0 | 0.00 | 0.00 | 0.00 | 87 | 1009.9 |
| 20260504041540 | 32 | 0 | 0.0 | 0.0 | 0.00 | 0.00 | 0.00 | 86 | 1009.7 |
| 20260504040040 | 33 | 0 | 0.0 | 0.0 | 0.00 | 0.00 | 0.00 | 85 | 1009.6 |
| 20260504034547 | 33 | 0 | 0.0 | 0.0 | 0.00 | 0.00 | 0.00 | 84 | 1009.6 |
| 20260504033049 | 33 | 0 | 0.0 | 0.0 | 0.00 | 0.00 | 0.00 | 83 | 1009.5 |
| 20260504031536 | 34 | 0 | 0.0 | 0.0 | 0.00 | 0.00 | 0.00 | 82 | 1009.5 |
| 20260504030041 | 34 | 0 | 0.0 | 0.0 | 0.00 | 0.00 | 0.00 | 82 | 1009.5 |
| 20260504024545 | 35 | 0 | 0.0 | 0.0 | 0.00 | 0.00 | 0.00 | 81 | 1009.4 |
| 20260504023039 | 36 | 0 | 0.0 | 0.0 | 0.00 | 0.00 | 0.00 | 79 | 1009.4 |
| 20260504021538 | 37 | 0 | 0.0 | 0.0 | 0.00 | 0.00 | 0.00 | 77 | 1009.4 |
| 20260504020036 | 38 | 0 | 0.0 | 0.0 | 0.00 | 0.00 | 0.00 | 75 | 1009.3 |
| 20260504014536 | 39 | 0 | 0.0 | 0.0 | 0.00 | 0.00 | 0.00 | 74 | 1009.2 |
| 20260504013048 | 40 | 0 | 0.0 | 0.0 | 0.00 | 0.00 | 0.00 | 69 | 1009.0 |
| 20260504011540 | 41 | 0 | 0.0 | 0.0 | 0.00 | 0.00 | 0.00 | 67 | 1008.9 |
| 20260504010051 | 42 | 0 | 0.0 | 0.0 | 0.00 | 0.00 | 0.00 | 66 | 1008.7 |
| 20260504004541 | 42 | 0 | 0.0 | 0.0 | 0.00 | 0.00 | 0.00 | 64 | 1008.6 |
| 20260504003037 | 43 | 0 | 0.0 | 0.0 | 0.00 | 0.00 | 0.00 | 62 | 1008.3 |
| 20260504001546 | 45 | 0 | 0.0 | 1.0 | 0.00 | 0.00 | 0.00 | 58 | 1008.2 |
| 20260504000039 | 47 | 0 | 0.0 | 1.0 | 0.00 | 0.00 | 0.00 | 54 | 1008.1 |
| 20260503234541 | 49 | 0 | 0.0 | 2.0 | 0.00 | 0.00 | 0.00 | 49 | 1007.9 |
| 20260503233038 | 50 | 0 | 0.0 | 4.0 | 0.00 | 0.00 | 0.00 | 45 | 1007.8 |
| 20260503231536 | 50 | 0 | 1.0 | 6.0 | 0.00 | 0.00 | 0.00 | 44 | 1007.7 |
| 20260503230036 | 51 | 0 | 1.0 | 6.0 | 0.00 | 0.00 | 0.00 | 44 | 1007.6 |
| 20260503224542 | 52 | 227 | 2.0 | 11.0 | 0.00 | 0.00 | 0.00 | 42 | 1007.4 |
| 20260503223042 | 52 | 228 | 3.0 | 10.0 | 0.00 | 0.00 | 0.00 | 42 | 1007.3 |
| 20260503221543 | 53 | 263 | 1.0 | 11.0 | 0.00 | 0.00 | 0.00 | 40 | 1007.0 |
| 20260503220053 | 53 | 229 | 3.0 | 19.0 | 0.00 | 0.00 | 0.00 | 42 | 1006.9 |